TimeCDT,TemperatureF,Dew PointF,Humidity,Sea Level PressureIn,VisibilityMPH,Wind Direction,Wind SpeedMPH,Gust SpeedMPH,PrecipitationIn,Events,Conditions,WindDirDegrees,DateUTC
12:53 AM,70.0,63.0,78,29.99,10.0,ESE,6.9,-,N/A,,Clear,110,2013-10-10 05:53:00
1:53 AM,69.1,63.0,81,29.99,10.0,SE,4.6,-,N/A,,Clear,130,2013-10-10 06:53:00
2:53 AM,69.1,63.0,81,29.98,10.0,ESE,5.8,-,N/A,,Clear,110,2013-10-10 07:53:00
3:53 AM,69.1,64.0,84,29.97,10.0,ESE,5.8,-,N/A,,Clear,110,2013-10-10 08:53:00
4:53 AM,68.0,64.0,87,29.96,10.0,SE,4.6,-,N/A,,Partly Cloudy,130,2013-10-10 09:53:00
5:53 AM,66.0,63.0,90,29.96,10.0,Calm,Calm,-,N/A,,Clear,0,2013-10-10 10:53:00
6:53 AM,66.9,63.0,87,29.96,10.0,Calm,Calm,-,N/A,,Clear,0,2013-10-10 11:53:00
7:53 AM,66.9,64.0,90,29.98,10.0,Calm,Calm,-,N/A,,Clear,0,2013-10-10 12:53:00
8:53 AM,72.0,66.0,81,29.99,10.0,Calm,Calm,-,N/A,,Clear,0,2013-10-10 13:53:00
9:53 AM,77.0,66.9,71,30.00,10.0,SSE,4.6,-,N/A,,Clear,150,2013-10-10 14:53:00
10:53 AM,81.0,66.9,62,29.99,10.0,SE,8.1,-,N/A,,Clear,130,2013-10-10 15:53:00
11:53 AM,84.0,66.0,55,29.97,10.0,SE,13.8,-,N/A,,Partly Cloudy,140,2013-10-10 16:53:00
12:53 PM,87.1,64.9,48,29.94,10.0,SSE,15.0,19.6,N/A,,Clear,150,2013-10-10 17:53:00
1:53 PM,89.1,62.1,40,29.91,10.0,SSE,17.3,21.9,N/A,,Clear,150,2013-10-10 18:53:00
2:53 PM,90.0,62.1,39,29.88,10.0,ESE,16.1,24.2,N/A,,Clear,120,2013-10-10 19:53:00
3:53 PM,91.0,62.1,38,29.87,10.0,SE,17.3,24.2,N/A,,Clear,140,2013-10-10 20:53:00
4:53 PM,90.0,66.0,45,29.86,10.0,SE,15.0,23.0,N/A,,Partly Cloudy,140,2013-10-10 21:53:00
5:53 PM,87.1,68.0,53,29.86,10.0,SE,17.3,25.3,N/A,,Partly Cloudy,140,2013-10-10 22:53:00
6:53 PM,84.9,69.1,59,29.87,10.0,SE,16.1,21.9,N/A,,Mostly Cloudy,140,2013-10-10 23:53:00
7:53 PM,82.9,71.1,67,29.88,10.0,SE,19.6,-,N/A,,Overcast,130,2013-10-11 00:53:00
8:53 PM,82.0,71.1,69,29.89,10.0,SE,15.0,-,N/A,,Scattered Clouds,130,2013-10-11 01:53:00
9:53 PM,81.0,72.0,74,29.90,10.0,SE,15.0,-,N/A,,Mostly Cloudy,130,2013-10-11 02:53:00
10:53 PM,80.1,72.0,76,29.90,10.0,SE,12.7,-,N/A,,Mostly Cloudy,130,2013-10-11 03:53:00
11:53 PM,80.1,72.0,76,29.90,10.0,SE,12.7,-,N/A,,Overcast,130,2013-10-11 04:53:00